Theta_e
318 317 317 316 316 317 318 318 317 315 315 312 313 317 328 332 335 342 340 336 337 340 343 343 346 344 344 340 341 343 343 342 341 339 338 335 335 334 334 331 327 327 327
317 319 317 317 317 318 318 321 319 319 316 315 313 314 315 319 324 336 345 343 344 345 344 340 342 346 342 344 342 344 343 341 338 339 336 335 335 333 331 329 328 326 326
316 317 318 318 319 318 317 318 318 320 319 317 316 317 319 317 325 339 341 344 344 344 340 340 345 344 344 344 342 344 342 341 340 336 335 335 333 331 329 328 326 326 327
315 316 317 317 319 320 318 319 321 322 322 323 320 318 317 321 318 330 341 343 342 341 340 344 344 343 343 341 343 343 341 339 336 336 335 333 332 331 329 327 326 328 328
314 314 314 314 317 318 323 321 320 319 317 320 323 321 322 319 333 328 340 344 344 342 345 347 343 342 341 343 342 340 340 336 335 337 333 331 331 331 329 326 328 329 328
314 313 313 313 312 315 319 321 319 319 316 323 324 323 324 326 323 335 340 343 344 342 345 345 342 342 343 343 340 340 337 336 334 333 333 332 331 331 329 327 328 328 328
313 312 312 312 312 313 316 321 322 319 319 322 326 326 323 331 335 337 339 345 344 343 342 343 343 343 343 342 341 338 336 333 332 332 332 331 331 329 329 328 328 327 328
312 312 311 310 310 314 318 319 320 319 318 320 322 326 329 328 332 337 341 343 342 343 343 342 340 342 341 339 340 337 335 333 332 331 329 328 328 330 329 327 328 328 328
312 312 311 310 312 313 314 318 318 319 319 321 323 323 327 331 331 334 340 341 341 341 342 340 339 341 340 340 339 336 334 330 331 329 327 326 327 329 329 328 328 328 328
311 311 311 310 313 314 316 315 316 317 318 320 320 321 329 329 332 332 339 340 341 340 341 339 339 340 339 336 334 330 328 327 327 328 327 326 328 327 327 328 328 328 328
310 310 311 311 312 314 314 315 316 317 317 319 324 325 329 328 332 336 339 339 339 339 339 339 337 336 334 335 334 332 332 329 329 330 328 327 327 326 326 327 327 328 327
310 310 311 312 313 314 313 314 317 318 320 321 321 325 327 327 336 339 337 337 337 337 337 336 336 335 334 334 334 333 333 331 331 330 327 327 326 326 326 326 327 328 328
310 311 310 313 312 312 314 316 318 317 317 321 320 323 327 330 336 336 335 336 337 335 334 334 333 332 332 334 333 332 332 330 330 329 328 327 327 327 326 326 326 327 327
310 312 312 312 312 313 314 316 317 316 317 319 321 325 328 333 335 335 337 336 336 335 334 332 332 331 329 330 329 329 330 330 330 328 328 328 328 328 325 325 325 326 326
310 311 311 312 312 313 314 315 316 316 318 317 317 326 332 334 334 336 335 336 335 332 331 331 330 328 328 328 329 329 329 328 328 327 326 326 327 327 325 325 326 326 326
310 310 311 312 313 313 314 314 314 314 314 314 317 330 334 332 333 335 334 334 332 331 330 330 327 325 326 328 328 327 325 325 324 326 327 327 326 325 326 325 325 325 326
310 311 313 314 314 315 316 316 318 317 319 320 323 333 332 335 334 333 332 330 330 330 329 329 325 326 324 324 324 326 326 325 326 326 325 325 324 324 324 324 324 325 325
312 314 314 314 315 315 316 319 322 325 324 322 334 334 333 333 332 330 329 329 329 329 328 326 326 327 326 327 327 327 326 325 324 325 324 324 324 324 324 324 324 324 324
312 317 320 320 321 321 322 327 324 320 320 332 332 330 330 329 329 330 330 328 327 327 327 327 328 327 328 326 326 326 326 325 324 324 325 325 325 324 324 324 324 325 324
317 318 320 322 326 326 323 321 322 326 330 331 331 330 330 330 330 330 329 328 329 328 328 328 328 327 327 326 326 324 323 323 324 325 325 325 325 324 325 324 324 325 325
321 319 321 323 327 322 323 325 328 330 330 329 328 328 328 327 327 327 328 328 328 327 327 327 327 327 326 325 323 323 323 323 324 324 324 325 325 325 324 324 324 325 325
320 325 325 327 326 326 327 329 329 329 328 327 326 327 326 325 325 325 325 326 327 327 326 326 325 324 323 323 323 323 323 323 325 325 324 324 323 324 325 325 325 325 325
329 328 328 327 326 326 326 326 325 324 325 325 324 324 324 323 323 324 325 325 325 325 325 324 324 323 323 323 324 325 325 325 324 323 323 324 325 325 325 325 325 324 324
329 328 327 326 325 323 323 322 322 322 322 323 323 324 324 324 323 323 323 324 324 324 324 324 323 323 324 325 324 325 324 324 324 324 325 325 325 324 324 323 322 319 319
328 327 326 324 324 322 322 322 322 322 322 322 321 320 322 322 321 322 323 324 323 322 323 324 323 324 324 324 324 324 324 325 325 325 324 324 323 321 320 319 316 311 306
326 325 325 324 323 322 320 320 321 320 319 319 321 321 321 322 322 322 323 322 322 321 321 321 322 323 323 322 324 324 322 323 324 323 323 322 320 318 310 303 300 300 299
Wind_Speed
16 18 18 19 20 16 19 20 22 24 26 29 31 32 34 34 35 34 35 33 36 40 44 45 42 37 34 28 29 25 22 24 21 19 17 11 13 15 14 17 14 11 9
9 13 19 23 23 21 23 23 23 24 25 28 30 32 30 31 33 35 34 32 38 41 39 39 39 34 32 26 27 25 24 21 18 21 14 10 11 13 13 11 10 11 7
21 18 15 17 25 30 25 25 27 28 29 29 31 35 36 33 30 33 38 36 42 41 39 38 38 33 30 27 25 23 22 19 19 17 14 12 12 12 9 10 9 9 7
25 28 26 21 19 26 29 28 26 27 30 33 32 33 34 32 32 32 34 36 41 40 38 33 33 33 28 25 23 22 20 17 16 15 13 10 10 9 10 9 7 7 6
18 25 31 30 30 29 28 33 33 34 35 36 36 34 32 34 35 32 34 34 35 32 32 32 30 27 23 24 20 19 16 16 15 16 15 12 12 10 10 7 6 7 6
26 26 27 28 31 38 32 31 33 36 36 33 37 37 34 33 34 31 32 34 36 30 33 29 29 24 24 23 19 15 16 18 17 16 15 14 12 10 8 7 8 10 9
31 32 34 35 41 41 42 30 31 33 33 36 35 37 36 35 31 32 32 37 32 28 30 29 28 26 25 22 20 15 18 16 15 16 16 12 12 8 7 10 7 9 7
33 35 34 34 39 38 36 34 25 27 32 34 38 34 35 34 32 32 32 34 30 28 28 29 28 26 21 19 18 18 17 17 16 14 11 9 10 9 7 10 10 9 9
38 35 36 36 38 37 41 35 29 25 31 32 33 36 34 32 32 33 29 31 33 28 26 26 24 21 19 19 19 17 20 18 16 13 10 9 8 8 9 12 14 12 10
40 38 37 35 34 35 33 38 32 31 33 31 32 35 32 33 31 32 28 32 33 27 26 24 21 19 19 17 14 13 16 17 15 11 10 9 7 6 9 10 11 12 9
40 39 37 37 35 35 32 35 40 36 35 31 30 32 29 31 33 30 31 33 31 29 25 23 19 20 16 15 14 14 12 11 12 10 10 10 9 7 8 10 12 12 11
36 36 36 33 30 31 34 34 32 34 29 32 33 32 27 33 31 32 34 32 30 28 24 21 18 18 17 16 15 16 15 12 12 11 11 12 10 8 9 11 11 12 10
32 33 34 35 34 33 35 32 32 33 34 31 32 34 27 33 32 33 31 30 27 25 22 17 14 15 14 19 17 14 15 15 16 14 11 8 7 6 8 10 10 12 11
32 30 28 30 30 32 34 35 35 37 37 36 35 32 30 36 34 37 35 30 29 26 22 17 15 12 11 13 14 13 15 15 16 14 13 9 9 8 7 7 6 9 9
35 33 32 32 31 31 34 39 40 40 38 38 38 31 38 40 40 40 36 38 35 29 23 20 16 14 14 15 15 15 16 16 16 15 14 11 9 10 9 7 5 6 8
33 35 35 33 32 32 33 35 37 41 43 45 39 32 44 40 39 39 37 34 28 23 20 21 19 17 16 18 17 17 15 14 14 13 10 8 8 8 8 6 5 5 6
28 27 27 26 28 29 27 27 31 34 36 40 40 42 43 44 44 38 33 24 22 22 21 21 21 17 19 18 18 17 16 13 12 10 9 8 10 11 9 8 8 6 5
23 24 27 32 30 30 29 25 25 21 8 21 50 43 43 48 41 32 29 28 26 21 21 22 21 20 20 19 19 17 15 13 9 10 11 11 10 10 10 9 7 7 6
18 17 16 20 22 24 23 20 23 10 30 52 44 37 36 35 34 31 27 26 27 25 22 22 23 22 20 18 18 15 13 13 13 11 12 12 10 9 8 6 5 3 5
13 16 15 17 20 38 24 22 31 37 46 46 43 42 40 39 37 32 27 29 28 26 24 23 21 22 21 19 16 12 11 10 11 14 13 10 8 7 6 5 4 4 4
10 19 4 31 28 29 32 38 43 43 45 45 44 40 35 35 34 31 32 28 28 26 24 23 24 22 17 15 14 13 13 13 15 13 11 9 9 7 5 7 6 6 2
18 27 35 38 43 43 44 43 42 43 43 43 38 33 33 33 32 31 29 28 27 25 24 23 23 21 20 17 15 15 14 15 13 11 11 11 10 10 10 9 5 5 6
37 35 38 37 40 39 39 40 41 41 41 37 33 33 32 30 28 29 29 26 25 25 24 24 23 21 18 17 14 14 15 14 13 11 16 14 11 10 8 9 7 5 5
31 31 32 31 30 33 38 41 41 38 36 36 34 33 32 30 28 27 29 29 25 24 24 22 20 18 18 16 15 14 12 14 15 16 16 14 12 9 7 6 5 5 5
29 28 29 32 32 33 35 38 36 35 33 32 30 30 33 33 33 32 32 29 25 23 22 20 20 19 17 15 14 15 14 12 15 14 11 10 9 8 7 7 8 9 10
31 29 28 28 28 28 32 34 32 30 31 32 34 36 34 33 30 27 24 22 22 23 23 22 19 18 17 16 17 14 13 12 10 8 8 9 11 13 13 15 15 13 12
Wind_Direction
272 270 273 276 272 272 272 272 272 266 255 246 249 253 252 258 255 248 237 236 238 256 256 252 257 259 254 243 238 243 249 248 249 244 254 256 255 259 267 279 284 288 291
255 281 280 277 265 258 270 264 271 274 272 266 255 256 259 257 256 248 245 245 246 248 248 252 253 248 241 239 235 235 245 237 245 246 242 252 247 265 280 286 272 275 289
245 246 267 301 274 258 265 265 266 271 277 273 267 261 256 256 255 245 244 243 244 246 249 248 244 235 237 234 234 233 231 241 240 236 240 245 252 273 288 292 267 266 257
242 241 249 263 290 275 264 253 250 262 270 274 272 267 259 257 255 254 252 249 250 251 252 242 237 234 237 233 233 239 238 235 219 223 235 240 259 267 294 281 254 239 223
247 242 249 256 256 270 274 253 253 259 267 267 271 270 265 255 253 254 252 251 252 245 239 237 232 229 232 235 239 237 230 208 216 218 225 235 253 273 300 250 204 206 194
254 253 254 256 259 260 262 257 255 259 264 264 271 269 264 262 255 254 250 248 247 235 230 229 227 225 225 232 231 233 216 202 214 223 232 250 258 278 273 220 201 201 208
270 268 267 264 263 262 261 260 252 256 260 265 268 267 261 257 256 251 247 246 238 233 215 219 220 223 226 226 222 225 205 214 231 243 253 248 252 276 256 206 196 212 229
269 268 269 265 265 262 255 246 250 262 261 268 267 269 267 262 250 249 248 240 230 223 218 220 226 222 223 228 225 218 212 222 229 241 240 243 253 244 240 212 191 211 224
262 261 260 264 261 260 256 252 249 261 271 272 267 267 266 267 249 242 242 230 220 217 214 219 228 224 227 218 223 219 222 228 226 238 240 241 245 237 214 201 204 213 212
254 259 262 263 251 255 258 249 251 268 275 279 272 270 264 259 243 243 233 220 213 211 212 215 218 223 209 207 205 219 220 221 225 225 218 223 212 222 217 212 204 206 199
256 263 255 256 250 251 248 240 252 265 268 272 269 263 256 255 241 236 220 210 207 209 210 209 200 193 191 197 215 217 219 215 213 214 215 208 201 202 192 195 198 188 199
253 253 251 246 244 252 242 255 252 258 265 270 266 262 255 251 236 227 211 208 209 212 206 190 184 187 192 196 214 217 223 215 210 207 197 198 198 196 189 185 186 194 211
246 242 245 241 251 247 246 244 252 257 257 269 267 259 257 244 225 210 208 207 191 185 182 178 186 191 204 216 218 219 205 207 201 188 184 175 161 158 163 181 194 209 227
243 242 239 244 247 247 246 243 246 253 253 258 262 261 247 228 208 200 196 186 173 173 176 176 178 190 199 198 202 194 192 197 189 186 177 168 183 187 179 187 204 215 211
239 241 244 247 246 247 246 242 245 247 249 254 256 259 218 210 198 192 191 174 175 180 174 173 185 186 174 166 159 161 164 169 172 178 190 175 188 181 182 193 196 197 184
234 237 242 244 248 246 246 245 248 254 253 255 248 236 213 202 190 178 169 173 174 174 173 178 174 167 161 160 162 161 166 175 181 180 165 157 194 194 184 171 191 187 200
230 232 233 233 237 241 245 252 263 264 261 253 249 207 208 184 169 165 163 165 173 175 181 175 169 162 153 154 158 154 151 152 150 146 157 172 183 185 184 193 203 209 215
224 229 233 235 238 240 248 243 249 239 252 250 159 175 170 162 163 164 167 168 165 174 174 168 163 153 151 150 154 155 150 144 158 177 172 170 170 176 188 202 200 207 235
224 254 236 226 233 231 229 176 173 216 193 138 144 142 147 151 155 161 166 169 159 152 156 156 155 155 157 158 157 158 162 163 166 168 167 165 168 191 196 189 181 224 246
240 239 243 228 173 160 162 155 151 144 136 138 137 137 142 145 148 154 158 154 153 154 154 153 158 161 163 164 161 168 176 176 178 174 176 179 190 186 192 174 155 108 102
185 158 170 138 154 160 156 143 140 136 135 134 137 144 148 151 149 150 152 153 152 154 155 157 156 161 166 166 165 178 184 183 175 177 177 176 166 152 159 155 150 150 132
183 154 156 137 140 143 145 143 141 139 138 140 142 145 147 145 143 147 152 150 152 156 157 161 157 159 158 161 159 154 150 157 160 153 159 166 158 152 147 157 167 165 160
119 118 128 134 137 141 141 141 141 141 138 140 141 142 143 140 142 145 150 152 164 167 157 159 159 160 158 158 162 158 160 157 157 153 150 156 157 152 157 158 155 162 175
129 130 128 131 135 134 133 136 137 139 140 139 139 140 141 143 144 149 150 148 151 149 152 159 159 154 154 157 154 155 157 155 153 154 158 154 151 150 163 169 147 130 132
135 134 130 129 129 133 139 141 143 143 144 146 147 148 146 146 146 146 145 147 149 150 152 152 151 152 150 148 146 145 140 141 148 149 154 164 166 153 136 124 117 117 115
132 134 136 138 140 144 146 147 146 146 145 146 149 148 151 153 152 151 154 152 152 152 152 152 148 147 147 153 159 158 151 151 152 151 151 150 141 129 129 126 127 129 121